Powrót do katalogu

STARLINK-11168

AktywnyŁącznośćVLEO
NORAD 60183·PAYLOAD·🇺🇸 United States

Wystrzelony Jul 3, 2024 z Cape Canaveral Space Force Station

Loading…

Następne Przeloty (najbliższe 24 godziny)

TLE

ŚwieżeSource: CelesTrak SupGP

Epoka: Sep 14, 2026, 21:18 UTC

1 60183C 24124A   26257.88798611 -.00055984  00000+0 -46112-3 0  2577
2 60183  53.1562 308.4953 0001056  82.2313 181.1973 15.69739781    12

Śledź STARLINK-11168 w czasie rzeczywistym z AllMySat

Download on the App Store